This is the latest recevied weather packets stored in our database for station/object AE5PL. If no packets are shown the sender has not sent any weather packets the latest 1 day(s).
| Time | Temp. | Humidity | Pressure | Rain* | Wind** | Luminosity | Snow |
|---|---|---|---|---|---|---|---|
| 1778030250 | 22.78° C | 75% | 1005.4 hPa | - | 2.24 m/s, 337° | - | - |
| 1778029950 | 22.78° C | 75% | 1005.3 hPa | - | 1.34 m/s, 337° | - | - |
| 1778029650 | 22.78° C | 74% | 1004.7 hPa | - | 2.24 m/s, 337° | - | - |
| 1778029350 | 22.78° C | 73% | 1004.7 hPa | - | 2.24 m/s, 360° | - | - |
| 1778029050 | 23.33° C | 72% | 1004.9 hPa | - | 1.34 m/s, 360° | - | - |
| 1778028749 | 23.33° C | 72% | 1004.6 hPa | - | 1.34 m/s, 360° | - | - |
| 1778028450 | 23.33° C | 71% | 1004.6 hPa | - | 2.24 m/s, 337° | - | - |
| 1778028150 | 23.33° C | 71% | 1004.9 hPa | - | 3.13 m/s, 337° | - | - |
| 1778027850 | 23.33° C | 70% | 1004.6 hPa | - | 1.79 m/s, 315° | - | - |
| 1778027550 | 23.33° C | 70% | 1004.6 hPa | - | 2.24 m/s, 315° | - | - |
| 1778027250 | 23.89° C | 69% | 1004.8 hPa | - | 4.02 m/s, 337° | - | - |
| 1778026950 | 23.89° C | 69% | 1004.6 hPa | - | 3.13 m/s, 315° | - | - |
| 1778026650 | 23.89° C | 69% | 1004.4 hPa | - | 3.13 m/s, 337° | - | - |
| 1778026350 | 24.44° C | 69% | 1004.4 hPa | - | 3.58 m/s, 315° | - | - |
| 1778026050 | 24.44° C | 69% | 1004.4 hPa | - | 3.13 m/s, 315° | - | - |
| 1778025750 | 24.44° C | 68% | 1004.4 hPa | - | 3.13 m/s, 315° | - | - |
| 1778025449 | 24.44° C | 68% | 1004.3 hPa | - | 4.92 m/s, 315° | - | - |
| 1778025149 | 25° C | 67% | 1004.3 hPa | - | 5.36 m/s, 337° | - | - |
| 1778024850 | 25.56° C | 65% | 1004.2 hPa | - | 3.13 m/s, 315° | - | - |
| 1778024550 | 26.11° C | 64% | 1004.1 hPa | - | 2.24 m/s, 315° | - | - |
| 1778024250 | 26.11° C | 63% | 1004 hPa | - | 2.68 m/s, 315° | - | - |
| 1778023950 | 26.67° C | 62% | 1004.1 hPa | - | 4.92 m/s, 315° | - | - |
| 1778023650 | 26.67° C | 61% | 1004 hPa | - | 4.47 m/s, 337° | - | - |
| 1778023349 | 27.22° C | 60% | 1003.7 hPa | - | 4.92 m/s, 315° | - | - |
| 1778023050 | 27.78° C | 57% | 1003.6 hPa | - | 4.92 m/s, 315° | - | - |
* Rain since midnight (hover to see other rain measurements)
** Current wind speed in m/s (hover to see current wind gust speed)